OE5RPP Weather Reports


time (UTC)temp
C
wind
direction
speed
KPH
gust
KPH
rain 1hr
cm
rain 24hr
cm
rain mn
cm
humidity
%
barometer
mb
20260502163648 26 0 6.4 4.8 0.00 0.00 0.00 17 1020.9
20260502162649 26 67 6.4 6.4 0.00 0.00 0.00 15 1020.9
20260502161648 26 90 4.8 6.4 0.00 0.00 0.00 15 1021.9
20260502160648 27 67 4.8 0.0 0.00 0.00 0.00 15 1021.9
20260502151649 26 67 6.4 4.8 0.00 0.00 0.00 17 1021.9
20260502150649 26 90 4.8 6.4 0.00 0.00 0.00 17 1021.9
20260502130648 25 0 6.4 9.7 0.00 0.00 0.00 17 1022.9
20260502123648 24 112 6.4 6.4 0.00 0.00 0.00 18 1023.9
20260502122647 24 0 8.0 6.4 0.00 0.00 0.00 18 1023.9
20260502121648 24 0 9.7 6.4 0.00 0.00 0.00 18 1023.9
20260502120648 24 112 4.8 4.8 0.00 0.00 0.00 18 1023.9
20260502115647 23 0 6.4 4.8 0.00 0.00 0.00 18 1023.9
20260502114647 23 45 6.4 6.4 0.00 0.00 0.00 18 1023.9
20260502113647 23 0 9.7 12.9 0.00 0.00 0.00 18 1023.9
20260502112648 23 0 6.4 6.4 0.00 0.00 0.00 18 1024.9
20260502111647 22 0 8.0 6.4 0.00 0.00 0.00 18 1024.9
20260502110647 23 0 8.0 9.7 0.00 0.00 0.00 18 1024.9
20260502105647 22 135 4.8 6.4 0.00 0.00 0.00 18 1024.9
20260502104647 21 67 6.4 4.8 0.00 0.00 0.00 20 1024.9
20260502103646 21 45 9.7 12.9 0.00 0.00 0.00 20 1024.9
20260502102646 21 0 6.4 6.4 0.00 0.00 0.00 18 1024.9
20260502101428 21 337 8.0 8.0 0.00 0.00 0.00 20 1024.9
20260502100430 20 67 6.4 6.4 0.00 0.00 0.00 20 1024.9
20260502091430 18 0 9.7 8.0 0.00 0.00 0.00 21 1025.9
20260502090430 18 45 4.8 3.2 0.00 0.00 0.00 21 1025.9
20260502071430 11 0 4.8 4.8 0.00 0.00 0.00 42 1025.9
20260502070430 11 0 1.6 1.6 0.00 0.00 0.00 49 1025.9
20260502065429 10 0 1.6 3.2 0.00 0.00 0.00 51 1026.9
20260502064430 9 0 0.0 0.0 0.00 0.00 0.00 54 1026.9
20260502063430 8 22 0.0 0.0 0.00 0.00 0.00 56 1026.9
20260502062429 8 22 0.0 0.0 0.00 0.00 0.00 59 1026.9
20260502061429 7 22 0.0 0.0 0.00 0.00 0.00 59 1026.9
20260502060429 7 22 0.0 0.0 0.00 0.00 0.00 59 1026.9
20260502055430 6 22 0.0 0.0 0.00 0.00 0.00 60 1026.9
20260502054429 5 22 0.0 0.0 0.00 0.00 0.00 60 1026.9
20260502053429 4 22 0.0 0.0 0.00 0.00 0.00 59 1026.9
20260502052430 3 22 0.0 0.0 0.00 0.00 0.00 58 1026.9
20260502051429 2 22 0.0 0.0 0.00 0.00 0.00 57 1026.9
20260502050429 1 22 0.0 0.0 0.00 0.00 0.00 57 1026.9
20260502045429 1 22 0.0 0.0 0.00 0.00 0.00 56 1026.9
20260502044430 0 22 0.0 0.0 0.00 0.00 0.00 56 1026.9
20260502043430 0 22 0.0 0.0 0.00 0.00 0.00 55 1026.9
20260502042429 0 22 0.0 0.0 0.00 0.00 0.00 55 1026.9
20260502041429 0 22 0.0 0.0 0.00 0.00 0.00 55 1026.9
20260502040429 0 22 0.0 0.0 0.00 0.00 0.00 54 1026.9
20260502035430 0 22 0.0 0.0 0.00 0.00 0.00 54 1026.9
20260502034429 0 22 0.0 0.0 0.00 0.00 0.00 54 1026.9
20260502033429 0 22 0.0 0.0 0.00 0.00 0.00 54 1026.9
20260502032429 0 22 0.0 0.0 0.00 0.00 0.00 54 1026.9
20260502031430 0 22 0.0 0.0 0.00 0.00 0.00 54 1026.9
20260502030430 0 22 0.0 0.0 0.00 0.00 0.00 54 1026.9
20260502025429 0 22 0.0 0.0 0.00 0.00 0.00 53 1026.9
20260502024429 0 22 0.0 0.0 0.00 0.00 0.00 53 1026.9
20260502023429 0 22 0.0 0.0 0.00 0.00 0.00 53 1026.9
20260502022430 1 22 0.0 0.0 0.00 0.00 0.00 51 1026.9
20260502021429 1 22 0.0 0.0 0.00 0.00 0.00 51 1026.9
20260502020429 1 22 0.0 0.0 0.00 0.00 0.00 51 1026.9
20260502015429 1 22 0.0 0.0 0.00 0.00 0.00 51 1026.9
20260502014430 1 22 0.0 0.0 0.00 0.00 0.00 51 1026.9
20260502013430 1 22 0.0 0.0 0.00 0.00 0.00 51 1026.9
20260502012429 1 22 0.0 0.0 0.00 0.00 0.00 50 1026.9
20260502011428 1 22 0.0 0.0 0.00 0.00 0.00 48 1027.9
20260502010428 1 22 0.0 0.0 0.00 0.00 0.00 48 1027.9
20260502005430 1 22 0.0 0.0 0.00 0.00 0.00 47 1027.9
20260502004429 1 22 0.0 0.0 0.00 0.00 0.00 47 1027.9
20260502003429 2 22 0.0 0.0 0.00 0.00 0.00 46 1027.9
20260502002430 2 22 0.0 0.0 0.00 0.00 0.00 47 1027.9
20260502001429 2 22 0.0 0.0 0.00 0.00 0.00 46 1027.9
20260502000431 2 22 0.0 0.0 0.00 0.00 0.00 45 1027.9
20260501235428 2 22 0.0 0.0 0.00 0.00 0.00 45 1027.9
20260501234429 2 22 0.0 0.0 0.00 0.00 0.00 43 1027.9
20260501233429 3 22 0.0 0.0 0.00 0.00 0.00 43 1027.9
20260501232429 3 22 0.0 0.0 0.00 0.00 0.00 41 1027.9
20260501231430 3 22 0.0 0.0 0.00 0.00 0.00 40 1027.9
20260501230430 3 22 0.0 0.0 0.00 0.00 0.00 40 1027.9
20260501225429 3 22 0.0 0.0 0.00 0.00 0.00 40 1027.9
20260501224428 3 22 0.0 0.0 0.00 0.00 0.00 39 1027.9
20260501223429 3 22 0.0 0.0 0.00 0.00 0.00 39 1027.9
20260501222429 4 22 0.0 0.0 0.00 0.00 0.00 39 1027.9
20260501221429 4 22 0.0 0.0 0.00 0.00 0.00 37 1027.9
20260501220429 4 22 0.0 0.0 0.00 0.00 0.00 37 1027.9
20260501215430 4 22 0.0 0.0 0.00 0.00 0.00 35 1027.9
20260501214429 5 22 0.0 0.0 0.00 0.00 0.00 34 1027.9
20260501213429 5 22 0.0 0.0 0.00 0.00 0.00 31 1027.9
20260501212430 5 22 0.0 0.0 0.00 0.00 0.00 31 1027.9
20260501211429 6 22 0.0 0.0 0.00 0.00 0.00 30 1027.9
20260501210429 6 22 0.0 0.0 0.00 0.00 0.00 30 1027.9
20260501205428 6 22 0.0 0.0 0.00 0.00 0.00 27 1027.9
20260501204430 6 22 0.0 0.0 0.00 0.00 0.00 30 1027.9
20260501203430 7 22 0.0 0.0 0.00 0.00 0.00 26 1027.9
20260501202429 7 22 0.0 0.0 0.00 0.00 0.00 26 1027.9
20260501201428 7 22 0.0 0.0 0.00 0.00 0.00 26 1027.9
20260501200428 8 22 0.0 0.0 0.00 0.00 0.00 22 1027.9
20260501195430 8 22 0.0 0.0 0.00 0.00 0.00 26 1027.9
20260501194429 9 22 0.0 0.0 0.00 0.00 0.00 22 1027.9
20260501193429 9 22 0.0 0.0 0.00 0.00 0.00 22 1027.9
20260501192428 10 22 0.0 0.0 0.00 0.00 0.00 22 1027.9
20260501191430 10 22 0.0 0.0 0.00 0.00 0.00 22 1027.9
20260501190430 11 22 0.0 0.0 0.00 0.00 0.00 21 1027.9
20260501185428 11 22 0.0 0.0 0.00 0.00 0.00 21 1027.9
20260501184430 12 22 0.0 0.0 0.00 0.00 0.00 21 1027.9
20260501183430 13 22 0.0 0.0 0.00 0.00 0.00 23 1027.9
20260501182429 14 22 0.0 0.0 0.00 0.00 0.00 23 1027.9
20260501181428 15 22 0.0 0.0 0.00 0.00 0.00 22 1027.9
20260501180428 16 22 0.0 0.0 0.00 0.00 0.00 22 1027.9
20260501175429 18 22 0.0 0.0 0.00 0.00 0.00 21 1027.9
20260501174429 19 22 0.0 0.0 0.00 0.00 0.00 21 1027.9
20260501173429 19 22 1.6 4.8 0.00 0.00 0.00 21 1027.9
20260501172430 20 67 4.8 4.8 0.00 0.00 0.00 20 1027.9
20260501171429 21 22 6.4 6.4 0.00 0.00 0.00 20 1027.9
20260501170429 21 90 4.8 1.6 0.00 0.00 0.00 20 1027.9
20260501165428 21 0 4.8 4.8 0.00 0.00 0.00 20 1027.9
20260501164429 21 90 8.0 6.4 0.00 0.00 0.00 18 1027.9